sat.trackr.live / text

‹ back to catalog

STARLINK-3612

NORAD 51770 · 2022-017C

PAYLOAD ACTIVE UNKNOWN

§ Identity

Operator
Country
US
Launch date
2022-02-25
Launch site
AFWTR
Launch vehicle
Mass (kg)
RCS (m²)

Purposes: comms

External: N2YO · Heavens-Above · Gunter

§ Orbital elements

Epoch: 2026-09-20T03:47:27.158208Z

Period
93.90 min
Inclination
53.1612°
Eccentricity
0.0001265
Mean motion
15.33550214 rev/d
Perigee alt
464.4 km
Apogee alt
466.1 km
Semi-major
6,843.4 km
B*
4.2689e-5
RAAN
173.4704°
Arg perigee
83.7250°
Mean anomaly
276.3896°
Rev number
25,214

§ Raw data

STARLINK-36121 51770U 22017C   26263.15795322  .00001031  00000+0  42689-4 0  99922 51770  53.1612 173.4704 0001265  83.7250 276.3896 15.33550214252149

JSON: /api/v1/satellites/51770 · /tle

For live sub-satellite position, see the globe view (requires WebGL).

§ Visibility from observer

Set your observer location to see the next 7 days of passes ≥ 10°. The values pass through the URL so the page stays shareable.

No JS? Fill the form by hand. The geolocation button needs JavaScript.